This is the latest recevied weather packets stored in our database for station/object K3RUP-1. If no packets are shown the sender has not sent any weather packets the latest 10 day(s).
| Time | Temp. | Humidity | Pressure | Rain* | Wind** | Luminosity | Snow |
|---|---|---|---|---|---|---|---|
| 1788439155 | 23.89° C | 99% | 1017.1 hPa | 0 mm | - | 29 W/m² | - |
| 1788438850 | 23.89° C | 99% | 1017.1 hPa | 0 mm | - | 26 W/m² | - |
| 1788438549 | 23.89° C | 99% | 1016.9 hPa | 0 mm | - | 47 W/m² | - |
| 1788438243 | 23.89° C | 99% | 1017.4 hPa | 0 mm | - | 58 W/m² | - |
| 1788437945 | 23.89° C | 99% | 1017.4 hPa | 0 mm | - | 24 W/m² | - |
| 1788437638 | 23.89° C | 99% | 1017.5 hPa | 0 mm | - | 24 W/m² | - |
| 1788437334 | 23.89° C | 99% | 1017.4 hPa | 1.78 mm | - | 15 W/m² | - |
| 1788437032 | 23.89° C | 99% | 1017.5 hPa | 1.78 mm | - | 18 W/m² | - |
| 1788436731 | 23.33° C | 99% | 1017.6 hPa | 1.78 mm | - | 15 W/m² | - |
| 1788436425 | 23.89° C | 99% | 1017.6 hPa | 0 mm | - | 7 W/m² | - |
| 1788436120 | 23.33° C | 99% | 1017.9 hPa | 0 mm | - | 1 W/m² | - |
| 1788435816 | 23.33° C | 99% | 1017.9 hPa | 0 mm | - | 1 W/m² | - |
| 1788435511 | 23.89° C | 99% | 1017.9 hPa | 0 mm | - | 0 W/m² | - |
| 1788435207 | 23.89° C | 99% | 1017.9 hPa | 0 mm | - | 0 W/m² | - |
| 1788434902 | 23.89° C | 99% | 1017.5 hPa | 0 mm | - | 0 W/m² | - |
| 1788434593 | 23.33° C | 99% | 1017.2 hPa | 0 mm | - | 0 W/m² | - |
| 1788434291 | 23.33° C | 99% | 1017.2 hPa | 0 mm | - | 3 W/m² | - |
| 1788433986 | 23.33° C | 99% | 1017 hPa | 0 mm | - | 1 W/m² | - |
| 1788433682 | 23.33° C | 99% | 1017.3 hPa | 0 mm | - | 0 W/m² | - |
| 1788433378 | 23.89° C | 99% | 1017.2 hPa | 0 mm | - | 0 W/m² | - |
| 1788433077 | 23.89° C | 99% | 1016.7 hPa | 0 mm | - | 1 W/m² | - |
| 1788432773 | 23.33° C | 99% | 1016.8 hPa | 0 mm | - | 1 W/m² | - |
| 1788432472 | 23.33° C | 99% | 1016.8 hPa | 0 mm | - | 0 W/m² | - |
| 1788432167 | 23.33° C | 99% | 1016.7 hPa | 0 mm | - | 0 W/m² | - |
| 1788431863 | 23.33° C | 99% | 1016.7 hPa | 0 mm | - | 0 W/m² | - |
* Rain latest hour (hover to see other rain measurements)
** Current wind speed in m/s (hover to see current wind gust speed)